Weather History for Sparta, TN

Change the Weather History Date:

Thursday, November 14, 2013

  Actual Average (KCSV) Record (KCSV)
Temperature  
Mean Temperature 36 °F 48 °F  
Max Temperature 57 °F 58 °F 73 °F (1964)
Min Temperature 15 °F 38 °F 12 °F (1969)
Degree Days  
Heating Degree Days 29    
Month to date heating degree days  
Since 1 July heating degree days  
Cooling Degree Days 0    
Month to date cooling degree days  
Year to date cooling degree days  
Moisture  
Dew Point 17 °F    
Average Humidity 59    
Maximum Humidity 93    
Minimum Humidity 17    
Precipitation  
Precipitation 0.00 in 0.17 in 1.20 in (1993)
Month to date precipitation 2.03  
Year to date precipitation 47.07  
Sea Level Pressure  
Sea Level Pressure 30.34 in    
Wind  
Wind Speed 2 mph (SSW)    
Max Wind Speed 10 mph    
Max Gust Speed -    
Visibility 10 miles    
Events      
T = Trace of Precipitation, MM = Missing Value Source: NWS Daily Summary

Daily Weather History Graph

Daily Weather History Graph

Search for Another Location

Airport:

Trip Planner

Search our weather history database for the weather conditions in past years. The results will help you decide how hot, cold, wet, or windy it might be!

Date:

Astronomy

Nov. 14, 2013 Rise Set
Actual Time 6:17 AM CST 4:34 PM CST
Civil Twilight 5:50 AM CST 5:02 PM CST
Nautical Twilight 5:19 AM CST 5:33 PM CST
Astronomical Twilight 4:49 AM CST 6:03 PM CST
Moon 2:51 PM CST (11/14) 3:17 AM CST (11/14)
Length of Visible Light 11h 11m
Length of Day
10h 16m
Waxing Gibbous, 92% of the Moon is Illuminated
Nov 14
Waxing Gibbous
Nov 17
Full
Nov 25
Last Quarter
Dec 2
New
Dec 9
First Quarter

Hourly Weather History & Observations

Time (CST) Temp. Windchill Dew Point Humidity Pressure Visibility Wind Dir Wind Speed Gust Speed Precip Events Conditions
12:35 AM 17.6 °F - 15.8 °F 93% 30.42 in 10.0 mi Calm Calm - N/A   Clear
12:55 AM 17.6 °F - 15.8 °F 93% 30.41 in 10.0 mi Calm Calm - N/A   Clear
1:15 AM 17.6 °F - 15.8 °F 93% 30.42 in 10.0 mi Calm Calm - N/A   Clear
1:35 AM 17.6 °F - 15.8 °F 93% 30.42 in 10.0 mi Calm Calm - N/A   Clear
1:55 AM 19.4 °F - 15.8 °F 86% 30.42 in 10.0 mi Calm Calm - N/A   Clear
2:15 AM 15.8 °F - 12.2 °F 86% 30.43 in 10.0 mi Calm Calm - N/A   Clear
2:35 AM 15.8 °F - 14.0 °F 93% 30.43 in 10.0 mi Calm Calm - N/A   Clear
2:55 AM 15.8 °F - 12.2 °F 86% 30.42 in 10.0 mi Calm Calm - N/A   Clear
3:15 AM 15.8 °F - 12.2 °F 86% 30.42 in 10.0 mi Calm Calm - N/A   Clear
3:35 AM 15.8 °F - 12.2 °F 86% 30.42 in 10.0 mi Calm Calm - N/A   Clear
3:55 AM 15.8 °F - 14.0 °F 93% 30.42 in 10.0 mi Calm Calm - N/A   Clear
4:15 AM 15.8 °F - 12.2 °F 86% 30.42 in 10.0 mi Calm Calm - N/A   Clear
4:35 AM 15.8 °F - 12.2 °F 86% 30.43 in 10.0 mi Calm Calm - N/A   Clear
4:55 AM 15.8 °F - 12.2 °F 86% 30.42 in 10.0 mi Calm Calm - N/A   Clear
5:15 AM 15.8 °F - 12.2 °F 86% 30.43 in 10.0 mi Calm Calm - N/A   Clear
5:35 AM 17.6 °F - 15.8 °F 93% 30.42 in 10.0 mi Calm Calm - N/A   Clear
5:55 AM 15.8 °F - 14.0 °F 93% 30.42 in 10.0 mi Calm Calm - N/A   Clear
6:15 AM 15.8 °F - 12.2 °F 86% 30.43 in 10.0 mi Calm Calm - N/A   Clear
6:35 AM 15.8 °F - 12.2 °F 86% 30.42 in 10.0 mi Calm Calm - N/A   Clear
6:55 AM 17.6 °F - 15.8 °F 93% 30.43 in 10.0 mi Calm Calm - N/A   Clear
7:15 AM 21.2 °F - 19.4 °F 93% 30.44 in 10.0 mi Calm Calm - N/A   Clear
7:35 AM 24.8 °F - 21.2 °F 86% 30.44 in 10.0 mi Calm Calm - N/A   Clear
7:55 AM 30.2 °F - 23.0 °F 75% 30.44 in 10.0 mi Calm Calm - N/A   Clear
8:15 AM 33.8 °F - 26.6 °F 75% 30.44 in 10.0 mi Calm Calm - N/A   Clear
8:35 AM 37.4 °F - 26.6 °F 65% 30.43 in 10.0 mi Calm Calm - N/A   Clear
8:55 AM 41.0 °F 39.0 °F 19.4 °F 42% 30.43 in 10.0 mi South 3.5 mph - N/A   Clear
9:15 AM 42.8 °F 41.1 °F 17.6 °F 36% 30.43 in 10.0 mi South 3.5 mph - N/A   Clear
9:35 AM 44.6 °F 42.2 °F 17.6 °F 34% 30.43 in 10.0 mi SW 4.6 mph - N/A   Clear
9:55 AM 46.4 °F 42.9 °F 15.8 °F 29% 30.43 in 10.0 mi SW 6.9 mph - N/A   Clear
10:15 AM 48.2 °F - 17.6 °F 30% 30.42 in 10.0 mi SW 4.6 mph - N/A   Clear
10:35 AM 50.0 °F - 15.8 °F 26% 30.41 in 10.0 mi SW 5.8 mph - N/A   Clear
10:55 AM 51.8 °F - 14.0 °F 22% 30.40 in 10.0 mi SW 10.4 mph - N/A   Clear
11:15 AM 51.8 °F - 14.0 °F 22% 30.39 in 10.0 mi WSW 9.2 mph - N/A   Clear
11:35 AM 51.8 °F - 15.8 °F 24% 30.37 in 10.0 mi SW 9.2 mph - N/A   Clear
11:55 AM 53.6 °F - 15.8 °F 22% 30.35 in 10.0 mi Variable 5.8 mph - N/A   Clear
12:15 PM 55.4 °F - 15.8 °F 21% 30.34 in 10.0 mi SSW 5.8 mph - N/A   Clear
12:35 PM 55.4 °F - 15.8 °F 21% 30.33 in 10.0 mi WSW 3.5 mph - N/A   Clear
12:55 PM 55.4 °F - 15.8 °F 21% 30.32 in 10.0 mi WSW 5.8 mph - N/A   Clear
1:15 PM 55.4 °F - 15.8 °F 21% 30.31 in 10.0 mi Variable 6.9 mph - N/A   Clear
1:35 PM 55.4 °F - 15.8 °F 21% 30.30 in 10.0 mi Variable 3.5 mph - N/A   Clear
1:55 PM 57.2 °F - 15.8 °F 20% 30.28 in 10.0 mi Variable 6.9 mph - N/A   Clear
2:15 PM 57.2 °F - 14.0 °F 18% 30.28 in 10.0 mi SW 5.8 mph - N/A   Clear
2:35 PM 57.2 °F - 12.2 °F 17% 30.27 in 10.0 mi West 5.8 mph - N/A   Clear
2:55 PM 57.2 °F - 12.2 °F 17% 30.28 in 10.0 mi SW 8.1 mph - N/A   Clear
3:15 PM 55.4 °F - 10.4 °F 17% 30.27 in 10.0 mi WSW 5.8 mph - N/A   Clear
3:35 PM 55.4 °F - 10.4 °F 17% 30.26 in 10.0 mi WSW 3.5 mph - N/A   Clear
3:55 PM 53.6 °F - 12.2 °F 19% 30.26 in 10.0 mi Calm Calm - N/A   Clear
4:15 PM 48.2 °F - 17.6 °F 30% 30.26 in 10.0 mi Calm Calm - N/A   Clear
4:35 PM 35.6 °F - 21.2 °F 56% 30.26 in 10.0 mi Calm Calm - N/A   Clear
4:55 PM 35.6 °F - 19.4 °F 52% 30.26 in 10.0 mi Calm Calm - N/A   Clear
5:15 PM 30.2 °F - 21.2 °F 69% 30.26 in 10.0 mi Calm Calm - N/A   Clear
5:35 PM 30.2 °F - 21.2 °F 69% 30.26 in 10.0 mi Calm Calm - N/A   Clear
5:55 PM 28.4 °F - 21.2 °F 74% 30.25 in 10.0 mi Calm Calm - N/A   Clear
6:15 PM 30.2 °F - 21.2 °F 69% 30.26 in 10.0 mi Calm Calm - N/A   Clear
6:35 PM 28.4 °F 23.3 °F 19.4 °F 69% 30.25 in 10.0 mi SSE 4.6 mph - N/A   Clear
6:55 PM 30.2 °F - 21.2 °F 69% 30.26 in 10.0 mi Calm Calm - N/A   Clear
7:15 PM 26.6 °F - 19.4 °F 74% 30.26 in 10.0 mi Calm Calm - N/A   Clear
7:35 PM 26.6 °F - 19.4 °F 74% 30.27 in 10.0 mi Calm Calm - N/A   Clear
7:55 PM 24.8 °F - 19.4 °F 80% 30.26 in 10.0 mi Calm Calm - N/A   Clear
8:15 PM 24.8 °F 20.5 °F 19.4 °F 80% 30.27 in 10.0 mi SSE 3.5 mph - N/A   Clear
8:35 PM 24.8 °F 19.1 °F 17.6 °F 74% 30.27 in 10.0 mi South 4.6 mph - N/A   Clear
8:55 PM 26.6 °F 21.2 °F 19.4 °F 74% 30.27 in 10.0 mi South 4.6 mph - N/A   Clear
9:15 PM 35.6 °F 30.7 °F 17.6 °F 48% 30.26 in 10.0 mi South 5.8 mph - N/A   Clear
9:35 PM 35.6 °F - 21.2 °F 56% 30.27 in 10.0 mi Calm Calm - N/A   Clear
9:55 PM 30.2 °F 24.3 °F 15.8 °F 55% 30.26 in 10.0 mi SSE 5.8 mph - N/A   Clear
10:15 PM 39.2 °F 35.9 °F 17.6 °F 42% 30.25 in 10.0 mi SSE 4.6 mph - N/A   Clear
10:35 PM 33.8 °F - 19.4 °F 56% 30.25 in 10.0 mi Calm Calm - N/A   Clear
10:55 PM 30.2 °F - 19.4 °F 64% 30.23 in 10.0 mi Calm Calm - N/A   Clear
11:15 PM 28.4 °F 23.3 °F 19.4 °F 69% 30.23 in 10.0 mi South 4.6 mph - N/A   Clear
11:35 PM 37.4 °F 34.9 °F 17.6 °F 45% 30.22 in 10.0 mi South 3.5 mph - N/A   Clear
11:55 PM 39.2 °F 34.2 °F 17.6 °F 42% 30.22 in 10.0 mi South 6.9 mph - N/A   Clear